Погода в Чуровичах

Россия / Брянская область     52°10′16″N   32°00′00″E
темп.,
°C
ветер,
м/с
пор.,
м/с
влажн.,
%
обл.,
%
осадки,
мм/ч
давл.,
гПа
погр.,
м
21 января, пт
пт2100:00−1ююз51194100 0.1 1002552
03:00−2зюз61094100 0.3 1001737
06:00−6юз411925 0.0 1000244
09:00−6ююз61393100 0.1 999439
12:00−3юз71295100 0.3 998932
15:00−2юз81495100 0.9 997917
18:00−2зюз71394100 0.8 997766
21:00−2зюз71295100 1.5 998767
22 января, сб
сб2200:00−3з61192100 0.8 999576
03:00−4зюз51195100 1.0 1001494
06:00−5зюз51095100 0.3 1002426
09:00−5зюз4995100 0.5 1003353
12:00−3з4694100 0.4 1005515
15:00−4зсз358890 0.5 1007477
18:00−10зсз229654 0.0 101010
21:00−8ссз359581 0.1 1012122
23 января, вс
вс2300:00−9сз239759 0.1 101473
03:00−11ссз249773 0.1 101678
06:00−15с229983 0.0 101835
09:00−14ссв349776 0.1 102177
12:00−10св349380 0.0 1024181
15:00−7св3491100 0.0 1026293
18:00−12ссв359755 0.0 102953
21:00−13св379651 0.0 103184
24 января, пн
пн2400:00−14св359868 0.0 103368
03:00−14ссв369756 0.0 103487
06:00−14с4109627 0.0 1033145
09:00−14ссв41096100 0.0 1035167
12:00−9св5109054 0.0 1034274
15:00−6ссв5990100 0.0 1032363
18:00−8с51093100 0.0 1032276
21:00−12ссв249784 0.0 103349
25 января, вт
вт2500:00−14с339755 0.0 103241
03:00−16ссв229857 0.0 103127
06:00−17ссв229958 0.0 103011
09:00−16ссз239869 0.0 102939
12:00−9сз229173 0.0 1027179
15:00−7юз22879 0.0 1024237
18:00−13ююз22976 0.0 102310
21:00−15ююз229760 0.0 102226